• In Uzbekistan
  • List of Countries
  • For 7 days
  • Water Temperature
  • Satellite Maps
  • Weather Map
  • Weather Widgets
  • user-avatar
    Login

    Hourly Weather Lankaran

    Today, 23 March, Thursday

    Time Temperature Precipitation Wind Pressure Humidity
    00:00 +1°C° 0.1 mm 2 mps 631 mmHg 77%
    01:00 +2°C° 0.4 mm 1 mps 631 mmHg 78%
    02:00 +2°C° 0.4 mm 1 mps 631 mmHg 80%
    03:00 +2°C° 0.4 mm 1 mps 631 mmHg 81%
    04:00 +2°C° 0.6 mm 1 mps 631 mmHg 83%
    05:00 +1°C° 0.6 mm 1 mps 631 mmHg 85%
    06:00 +1°C° 0.6 mm 1 mps 631 mmHg 87%
    07:00 +1°C° 0.9 mm 2 mps 631 mmHg 87%
    08:00 +1°C° 0.9 mm 2 mps 632 mmHg 87%
    09:00 +1°C° 0.9 mm 2 mps 632 mmHg 86%
    10:00 +1°C° 0.9 mm 2 mps 632 mmHg 86%
    11:00 +2°C° 0.9 mm 2 mps 632 mmHg 85%
    12:00 +2°C° 0.9 mm 2 mps 632 mmHg 84%
    13:00 +2°C° 0.5 mm 2 mps 632 mmHg 84%
    14:00 +1°C° 0.5 mm 3 mps 632 mmHg 84%
    15:00 +1°C° 0.5 mm 3 mps 632 mmHg 83%
    16:00 +2°C° 0.3 mm 2 mps 632 mmHg 85%
    17:00 +1°C° 0.3 mm 2 mps 632 mmHg 86%
    18:00 +1°C° 0.3 mm 2 mps 632 mmHg 88%
    19:00 +1°C° 0.4 mm 2 mps 633 mmHg 88%
    20:00 -1°C° 0.4 mm 2 mps 633 mmHg 89%
    21:00 +1°C° 0.4 mm 1 mps 634 mmHg 89%
    22:00 +1°C° 0.7 mm 1 mps 634 mmHg 89%
    23:00 +1°C° 0.7 mm 1 mps 634 mmHg 90%

    Tomorrow, 24 March, Friday

    Time Temperature Precipitation Wind Pressure Humidity
    00:00 -1°C° 0.7 mm 2 mps 634 mmHg 91%
    01:00 -1°C° 0.8 mm 2 mps 634 mmHg 91%
    02:00 -1°C° 0.8 mm 2 mps 634 mmHg 92%
    03:00 -2°C° 0.8 mm 2 mps 634 mmHg 92%
    04:00 -2°C° 0.6 mm 2 mps 634 mmHg 93%
    05:00 -2°C° 0.6 mm 2 mps 634 mmHg 93%
    06:00 -2°C° 0.6 mm 2 mps 635 mmHg 93%
    07:00 -2°C° 0.5 mm 2 mps 635 mmHg 91%
    08:00 -1°C° 0.5 mm 3 mps 635 mmHg 89%
    09:00 -1°C° 0.5 mm 3 mps 636 mmHg 86%
    10:00 -1°C° 0.4 mm 3 mps 635 mmHg 85%
    11:00 0°C° 0.4 mm 3 mps 635 mmHg 83%
    12:00 0°C° 0.4 mm 3 mps 635 mmHg 82%
    13:00 0°C° 0.3 mm 3 mps 635 mmHg 82%
    14:00 0°C° 0.3 mm 3 mps 635 mmHg 81%
    15:00 0°C° 0.3 mm 3 mps 635 mmHg 80%
    16:00 +1°C° 0.2 mm 2 mps 635 mmHg 83%
    17:00 -1°C° 0.2 mm 2 mps 635 mmHg 85%
    18:00 -1°C° 0.2 mm 2 mps 635 mmHg 87%
    19:00 0°C° 0.1 mm 1 mps 635 mmHg 88%
    20:00 0°C° 0.1 mm 1 mps 635 mmHg 88%
    21:00 0°C° 0.1 mm 1 mps 636 mmHg 88%
    22:00 -1°C° 0 mm 1 mps 635 mmHg 89%
    23:00 -3°C° 0 mm 1 mps 635 mmHg 89%

    Day after tomorrow, 25 March, Saturday

    Time Temperature Precipitation Wind Pressure Humidity
    00:00 -4°C° 0 mm 1 mps 634 mmHg 90%
    01:00 -4°C° 0 mm 1 mps 634 mmHg 90%
    02:00 -6°C° 0 mm 0 mps 633 mmHg 90%
    03:00 -6°C° 0 mm 0 mps 633 mmHg 90%
    04:00 -6°C° 0 mm 0 mps 632 mmHg 90%
    05:00 -6°C° 0 mm 0 mps 632 mmHg 90%
    06:00 -6°C° 0 mm 0 mps 632 mmHg 89%
    07:00 -4°C° 0 mm 0 mps 633 mmHg 84%
    08:00 0°C° 0 mm 1 mps 634 mmHg 78%
    09:00 +2°C° 0 mm 1 mps 634 mmHg 73%
    10:00 +3°C° 0 mm 1 mps 634 mmHg 71%
    11:00 +4°C° 0 mm 1 mps 634 mmHg 70%
    12:00 +3°C° 0 mm 2 mps 634 mmHg 69%
    13:00 +4°C° 0 mm 2 mps 633 mmHg 68%
    14:00 +4°C° 0 mm 2 mps 633 mmHg 68%
    15:00 +4°C° 0 mm 2 mps 632 mmHg 67%
    16:00 +2°C° 0 mm 2 mps 631 mmHg 70%
    17:00 -1°C° 0 mm 2 mps 631 mmHg 73%
    18:00 -3°C° 0 mm 2 mps 630 mmHg 76%
    19:00 -3°C° 0 mm 2 mps 630 mmHg 74%
    20:00 -4°C° 0 mm 2 mps 630 mmHg 72%
    21:00 -4°C° 0 mm 2 mps 630 mmHg 71%
    22:00 -3°C° 0 mm 2 mps 630 mmHg 67%
    23:00 -3°C° 0 mm 2 mps 630 mmHg 64%

    26 March, Sunday

    Time Temperature Precipitation Wind Pressure Humidity
    00:00 -3°C° 0 mm 2 mps 630 mmHg 61%
    01:00 -3°C° 0 mm 2 mps 630 mmHg 60%
    02:00 -3°C° 0 mm 2 mps 629 mmHg 60%
    03:00 -3°C° 0 mm 2 mps 629 mmHg 59%
    04:00 -3°C° 0 mm 2 mps 629 mmHg 59%
    05:00 -3°C° 0 mm 2 mps 629 mmHg 59%
    06:00 -3°C° 0 mm 2 mps 630 mmHg 59%
    07:00 -1°C° 0 mm 2 mps 630 mmHg 58%
    08:00 +3°C° 0 mm 2 mps 631 mmHg 58%
    09:00 +5°C° 0 mm 2 mps 632 mmHg 57%
    10:00 +6°C° 0 mm 2 mps 632 mmHg 57%
    11:00 +6°C° 0 mm 2 mps 632 mmHg 57%
    12:00 +7°C° 0 mm 2 mps 632 mmHg 57%
    13:00 +7°C° 0 mm 3 mps 631 mmHg 57%
    14:00 +7°C° 0 mm 3 mps 631 mmHg 58%
    15:00 +7°C° 0 mm 3 mps 631 mmHg 59%
    16:00 +5°C° 0 mm 3 mps 631 mmHg 59%
    17:00 +4°C° 0 mm 3 mps 630 mmHg 60%
    18:00 +2°C° 0 mm 3 mps 630 mmHg 61%
    19:00 +2°C° 0 mm 3 mps 630 mmHg 61%
    20:00 +2°C° 0 mm 3 mps 631 mmHg 60%
    21:00 +2°C° 0 mm 3 mps 631 mmHg 60%
    22:00 +3°C° 0 mm 2 mps 631 mmHg 60%
    23:00 +3°C° 0 mm 2 mps 631 mmHg 61%

    27 March, Monday

    Time Temperature Precipitation Wind Pressure Humidity
    00:00 +2°C° 0 mm 2 mps 630 mmHg 62%
    01:00 +2°C° 0 mm 2 mps 630 mmHg 64%
    02:00 +2°C° 0 mm 2 mps 630 mmHg 66%
    03:00 +2°C° 0 mm 2 mps 630 mmHg 68%
    04:00 +1°C° 0 mm 2 mps 630 mmHg 70%
    05:00 +2°C° 0 mm 1 mps 630 mmHg 72%
    06:00 +2°C° 0 mm 1 mps 630 mmHg 74%
    07:00 +3°C° 0 mm 2 mps 631 mmHg 71%
    08:00 +5°C° 0 mm 2 mps 632 mmHg 68%
    09:00 +7°C° 0 mm 2 mps 632 mmHg 65%
    10:00 +8°C° 0 mm 2 mps 632 mmHg 63%
    11:00 +8°C° 0 mm 2 mps 632 mmHg 62%
    12:00 +9°C° 0 mm 3 mps 632 mmHg 60%
    13:00 +9°C° 0 mm 3 mps 632 mmHg 60%
    14:00 +9°C° 0 mm 3 mps 631 mmHg 60%
    15:00 +9°C° 0 mm 3 mps 631 mmHg 60%
    16:00 +9°C° 0 mm 3 mps 631 mmHg 60%
    17:00 +8°C° 0 mm 3 mps 631 mmHg 60%
    18:00 +7°C° 0 mm 3 mps 630 mmHg 60%
    19:00 +5°C° 0 mm 3 mps 630 mmHg 60%
    20:00 +5°C° 0 mm 3 mps 630 mmHg 59%
    21:00 +5°C° 0 mm 2 mps 630 mmHg 59%
    22:00 +5°C° 0 mm 2 mps 630 mmHg 59%
    23:00 +5°C° 0 mm 2 mps 630 mmHg 60%

    28 March, Tuesday

    Time Temperature Precipitation Wind Pressure Humidity
    00:00 +4°C° 0 mm 2 mps 630 mmHg 61%
    01:00 +4°C° 0 mm 2 mps 630 mmHg 61%
    02:00 +4°C° 0 mm 2 mps 629 mmHg 62%
    03:00 +2°C° 0 mm 3 mps 629 mmHg 62%
    04:00 +2°C° 0 mm 3 mps 629 mmHg 63%
    05:00 +2°C° 0 mm 3 mps 629 mmHg 64%
    06:00 +2°C° 0 mm 3 mps 630 mmHg 65%
    07:00 +3°C° 0 mm 3 mps 630 mmHg 64%
    08:00 +5°C° 0 mm 3 mps 631 mmHg 62%
    09:00 +8°C° 0 mm 3 mps 631 mmHg 61%
    10:00 +9°C° 0 mm 3 mps 631 mmHg 60%
    11:00 +9°C° 0 mm 3 mps 631 mmHg 58%
    12:00 +10°C° 0 mm 4 mps 630 mmHg 56%
    13:00 +10°C° 0 mm 3 mps 630 mmHg 56%
    14:00 +11°C° 0 mm 3 mps 629 mmHg 56%
    15:00 +11°C° 0 mm 3 mps 629 mmHg 57%
    16:00 +10°C° 0 mm 3 mps 629 mmHg 55%
    17:00 +9°C° 0 mm 3 mps 629 mmHg 54%
    18:00 +8°C° 0 mm 3 mps 629 mmHg 53%
    19:00 +8°C° 0 mm 3 mps 629 mmHg 55%
    20:00 +7°C° 0 mm 2 mps 629 mmHg 58%
    21:00 +7°C° 0 mm 2 mps 629 mmHg 60%
    22:00 +7°C° 0.4 mm 2 mps 629 mmHg 65%
    23:00 +6°C° 0.4 mm 2 mps 629 mmHg 70%
    Show more